Weather Roundup
Issued by NWS

Home | Current Version | Previous Version | Graphics & Text | Print | Product List | Glossary Off
Versions: 1 2 3 4 5 6 7 8 9 10 11 12 13 14 15 16 17 18 19 20 21 22 23 24 25 26 27 28 29 30 31 32 33 34 35 36 37 38 39 40 41 42 43 44 45 46 47 48 49 50

574
NZUS93 KARX 241010
HRRWXR

CURRENT HOURLY OBSERVATIONS ACROSS
MUCH OF THE UPPER MISSISSIPPI VALLEY
NATIONAL WEATHER SERVICE LA CROSSE WI
500 AM CDT TUE MAY 24 2016


...SOUTHEAST MINNESOTA...


CITY           SKY/WX    TMP DP  RH WIND       PRES   REMARKS
ROCHESTER      CLOUDY    65  61  87 S12       29.83F
ROCHESTER/MAYO CLOUDY    64  64  98 W8        29.85R
WINONA         CLOUDY    63  61  94 CALM      29.84S
AUSTIN         MOCLDY    64  59  82 S10       29.85R
ALBERT LEA     PTCLDY    64  61  88 SW6       29.85R
DODGE CENTER   CLOUDY    64  61  88 SW13      29.84R
PRESTON        CLOUDY    61  58  90 S6        29.87R
OWATONNA       MOCLDY    64  59  82 S7        29.84R
FARIBAULT      CLOUDY    64  61  88 S3        29.83R
$$

...ELSEWHERE IN MINNESOTA...


CITY           SKY/WX    TMP DP  RH WIND       PRES   REMARKS
MINNEAPOLIS    CLOUDY    67  59  75 SW8       29.80R
INTNL FALLS    FOG       53  53 100 CALM      29.78R VSB 1
DULUTH         CLOUDY    59  58  96 SE7       29.81F THUNDER
RED WING       CLOUDY    64  63  94 CALM      29.82R
REDWOOD FALLS  CLOUDY    62  61  96 S7        29.81R FOG
MANKATO        PTCLDY    64  57  77 S10       29.83R
WORTHINGTON    CLEAR     61  60  97 S14       29.83R
FAIRMONT       PTCLDY    63  59  88 SW10      29.84R
$$

...SOUTHWEST WISCONSIN...


CITY           SKY/WX    TMP DP  RH WIND       PRES   REMARKS
LA CROSSE      CLOUDY    68  57  68 SE7       29.84F
PRAIRIE DU CHI CLOUDY    66  51  58 CALM      29.88R
BOSCOBEL       CLOUDY    60  55  83 CALM      29.88S
LONE ROCK      CLOUDY    59  53  80 E3        29.90R
PLATTEVILLE    CLOUDY    65  51  61 S8        29.92R
FORT MC COY    CLOUDY    61  56  83 CALM      29.87S
CAMP DOUGLAS   CLOUDY    62  56  81 SE6       29.87S
MAUSTON-NEW LI CLOUDY    62  52  67 S5        29.88R
VIROQUA        PTSUNNY   65  50  58 S5        29.89R
WIS DELLS      CLOUDY    64  48  56 S6        29.90R
$$

...ELSEWHERE IN WISCONSIN...


CITY           SKY/WX    TMP DP  RH WIND       PRES   REMARKS
MILWAUKEE      PTCLDY    60  44  55 SW8       29.94R
MADISON        CLOUDY    63  50  62 S6        29.91S
GREEN BAY      CLEAR     56  44  64 S5        29.89S
EAU CLAIRE     CLOUDY    63  61  93 CALM      29.83S
BLACK RVR FLS  PTSUNNY   61  58  91 CALM      29.85F
MEDFORD        CLOUDY    61  61 100 CALM      29.88S
WAUSAU         CLOUDY    62  54  74 E5        29.87S
WIS RAPIDS     CLOUDY    63  47  55 S5        29.89S
MARSHFIELD     CLOUDY    60  57  89 NW5       29.87S
RICE LAKE      MOCLDY    62  59  91 SE6       29.84F
$$

...NORTHEAST IOWA...


CITY           SKY/WX    TMP DP  RH WIND       PRES   REMARKS
WATERLOO       CLOUDY    64  60  87 SW8       29.87S
DUBUQUE        CLOUDY    60  51  72 SW8       29.92R
DECORAH        PTCLDY    64  54  68 VRB6      29.86R
MASON CITY     LGT RAIN  64  61  90 SW18      29.85S
CHARLES CITY   MOCLDY    64  61  88 SW13      29.87S
OELWEIN        CLOUDY    66  57  72 SW14G22   29.89R
$$

...ELSEWHERE IN IOWA...


CITY           SKY/WX    TMP DP  RH WIND       PRES   REMARKS
DES MOINES     CLOUDY    65  62  90 S3        29.88F
IOWA CITY      CLOUDY    64  53  67 CALM      29.93R
FORT DODGE     CLOUDY    59  55  88 CALM      29.85F
MARSHALLTOWN   CLOUDY    64  62  93 SW8       29.88R
CEDAR RAPIDS   CLOUDY    65  56  72 SW10      29.91R
$$

...NORTHERN ILLINOIS...


CITY           SKY/WX    TMP DP  RH WIND       PRES   REMARKS
CHICAGO-OHARE  CLOUDY    64  46  52 SW5       29.96R
CHICAGO-MIDWAY CLOUDY    66  43  43 SW8       29.97R
MOLINE         MOCLDY    63  51  65 CALM      29.92R
ROCKFORD       CLOUDY    60  49  66 CALM      29.97S
PEORIA         PTCLDY    61  51  70 CALM      29.97R
$$

NOTE: "FAIR" INDICATES FEW OR NO CLOUDS BELOW 12,000 FEET WITH NO
SIGNIFICANT WEATHER AND/OR OBSTRUCTIONS TO VISIBILITY. WIND
SPEEDS ARE IN MILES-PER-HOUR.




USA.gov is the U.S. government's official web portal to all federal, state and local government web resources and services.